Weather History for PHJR - March, 2012

Change the Weather History Date:

Sunday, March 25, 2012

  Actual Average (PHNL) Record (PHNL)
Temperature  
Mean Temperature 73 °F 75 °F  
Max Temperature 80 °F 82 °F 88 °F (1983)
Min Temperature 66 °F 69 °F 56 °F (1955)
Degree Days  
Heating Degree Days 0 0  
Month to date heating degree days 0  
Since 1 July heating degree days 0  
Cooling Degree Days 8 10  
Month to date cooling degree days 233  
Year to date cooling degree days 715  
Growing Degree Days 23 (Base 50)    
Moisture  
Dew Point 60 °F    
Average Humidity 66    
Maximum Humidity 79    
Minimum Humidity 48    
Precipitation  
Precipitation 0.00 in 0.06 in 1.51 in (1971)
Month to date precipitation 1.68  
Year to date precipitation 5.98  
Snow  
Snow 0.00 in - - ()
Month to date snowfall  
Since 1 July snowfall  
Snow Depth -    
Sea Level Pressure  
Sea Level Pressure 30.11 in    
Wind  
Wind Speed 6 mph (ENE)    
Max Wind Speed 12 mph    
Max Gust Speed 21 mph    
Visibility 10 miles    
Events      
T = Trace of Precipitation, MM = Missing Value Source: NWS Daily Summary

Daily Weather History Graph

Daily Weather History Graph

Search for Another Location

Airport or City:

Trip Planner

Search our weather history database for the weather conditions in past years. The results will help you decide how hot, cold, wet, or windy it might be!

Date:

Astronomy

Mar. 25, 2012 Rise Set
Actual Time 6:31 AM HST 6:45 PM HST
Civil Twilight 6:08 AM HST 7:07 PM HST
Nautical Twilight 5:43 AM HST 7:33 PM HST
Astronomical Twilight 5:16 AM HST 7:59 PM HST
Moon 8:18 AM HST (3/25) 9:39 PM HST (3/25)
Length of Visible Light 12h 58m
Length of Day
12h 14m
Waxing Crescent, 10% of the Moon is Illuminated
Mar 25
Waxing Crescent
Mar 30
First Quarter
Apr 6
Full
Apr 13
Last Quarter
Apr 20
New

Hourly Weather History & Observations

Time (HST) Temp. Heat Index Dew Point Humidity Pressure Visibility Wind Dir Wind Speed Gust Speed Precip Events Conditions
12:24 AM 71.6 °F - 60.8 °F 69% 30.12 in 10.0 mi Variable 5.8 mph - N/A   Mostly Cloudy
12:46 AM 71.6 °F - 60.8 °F 69% 30.11 in 10.0 mi Variable 5.8 mph - N/A   Overcast
12:53 AM 71.1 °F - 60.1 °F 68% 30.13 in 10.0 mi Variable 6.9 mph - N/A   Overcast
1:53 AM 70.0 °F - 60.1 °F 71% 30.11 in 10.0 mi Variable 4.6 mph - N/A   Mostly Cloudy
2:32 AM 69.8 °F - 60.8 °F 73% 30.08 in 10.0 mi ENE 5.8 mph - N/A   Partly Cloudy
2:53 AM 69.1 °F - 60.1 °F 73% 30.10 in 10.0 mi Variable 3.5 mph - N/A   Mostly Cloudy
3:53 AM 68.0 °F - 60.1 °F 76% 30.09 in 10.0 mi ENE 4.6 mph - N/A   Clear
4:02 AM 68.0 °F - 60.8 °F 78% 30.07 in 10.0 mi ENE 4.6 mph - N/A   Scattered Clouds
4:53 AM 66.9 °F - 60.1 °F 79% 30.10 in 10.0 mi ENE 6.9 mph - N/A   Partly Cloudy
5:53 AM 66.9 °F - 60.1 °F 79% 30.11 in 10.0 mi Calm Calm - N/A   Clear
6:53 AM 68.0 °F - 59.0 °F 73% 30.12 in 10.0 mi Variable 4.6 mph - N/A   Clear
7:50 AM 71.6 °F - 60.8 °F 69% 30.11 in 10.0 mi Variable 5.8 mph - N/A   Partly Cloudy
7:53 AM 72.0 °F - 60.1 °F 66% 30.13 in 10.0 mi Variable 5.8 mph - N/A   Partly Cloudy
8:53 AM 75.9 °F - 59.0 °F 56% 30.14 in 10.0 mi Variable 4.6 mph - N/A   Clear
9:53 AM 75.9 °F - 61.0 °F 60% 30.15 in 10.0 mi ENE 9.2 mph 18.4 mph N/A   Clear
10:53 AM 79.0 °F - 60.1 °F 52% 30.14 in 10.0 mi ENE 8.1 mph - N/A   Clear
11:53 AM 80.1 °F 80.9 °F 60.1 °F 50% 30.13 in 10.0 mi ENE 8.1 mph - N/A   Scattered Clouds
12:53 PM 79.0 °F - 59.0 °F 50% 30.11 in 10.0 mi NE 9.2 mph 17.3 mph N/A   Mostly Cloudy
1:53 PM 79.0 °F - 59.0 °F 50% 30.09 in 10.0 mi Variable 6.9 mph - N/A   Overcast
2:53 PM - - - N/A% 30.09 in - North - - N/A   Unknown
3:53 PM 80.1 °F 80.7 °F 59.0 °F 48% 30.06 in 10.0 mi East 11.5 mph 20.7 mph N/A   Scattered Clouds
4:53 PM 78.1 °F - 57.9 °F 50% 30.07 in 10.0 mi ENE 8.1 mph - N/A   Clear
5:53 PM 75.9 °F - 57.0 °F 52% 30.08 in 10.0 mi Variable 3.5 mph - N/A   Clear
6:53 PM 72.0 °F - 59.0 °F 64% 30.10 in 10.0 mi Variable 5.8 mph - N/A   Clear
7:25 PM 71.6 °F - 59.0 °F 64% 30.09 in 10.0 mi Variable 3.5 mph - N/A   Partly Cloudy
7:48 PM 69.8 °F - 59.0 °F 68% 30.10 in 10.0 mi Variable 3.5 mph - N/A   Mostly Cloudy
7:53 PM 70.0 °F - 59.0 °F 68% 30.12 in 10.0 mi Variable 3.5 mph - N/A   Partly Cloudy
8:53 PM 69.1 °F - 59.0 °F 70% 30.13 in 10.0 mi ENE 4.6 mph - N/A   Unknown
9:53 PM 69.1 °F - 60.1 °F 73% 30.14 in 10.0 mi ENE 5.8 mph - N/A   Unknown
10:53 PM 68.0 °F - 60.1 °F 76% 30.14 in 10.0 mi ENE 5.8 mph - N/A   Clear
11:04 PM 68.0 °F - 60.8 °F 78% 30.12 in 10.0 mi Variable 4.6 mph - N/A   Scattered Clouds
11:53 PM 68.0 °F - 61.0 °F 78% 30.14 in 10.0 mi ENE 4.6 mph - N/A   Clear